Regional Weather Roundup
Issued by NWS Northern Indiana

Home | Current Version | Previous Version | Graphics & Text | Print | Product List | Glossary On
Versions: 1 2 3 4 5 6 7 8 9 10 11 12 13 14 15 16 17 18 19 20 21 22 23 24 25 26 27 28 29 30 31 32 33 34 35 36 37 38 39 40 41 42 43 44 45 46 47 48 49 50
000
ASUS43 KIWX 070100
RWRIWX

KIWX WEATHER ROUNDUP
NATIONAL WEATHER SERVICE NORTHERN INDIANA
800 PM EST FRI MAR 06 2015

NOTE: "FAIR" INDICATES FEW OR NO CLOUDS BELOW 12,000 FEET WITH NO
SIGNIFICANT WEATHER AND/OR OBSTRUCTIONS TO VISIBILITY.

* THESE STATIONS ARE NOT UNDER NWS QUALITY CONTROL. THEY ALSO MAY NOT
  REPORT WEATHER SUCH AS PRECIPITATION OR FOG.

INZ001>027-070200-
NORTHERN INDIANA

CITY           SKY/WX    TMP DP  RH WIND       PRES   REMARKS
GARY*          CLEAR     25  12  58 SW16      30.22F WCI  12
SOUTH BEND     FAIR      23  10  57 SW13      30.23R WCI  11
ELKHART*       CLEAR     21   7  53 SW6       30.23S WCI  14
GOSHEN         CLEAR     22   9  57 S15       30.22F WCI   9
MONTICELLO*    CLEAR     23  13  63 SW9G16    30.27R WCI  13
ANGOLA*        CLEAR     19   5  53 S8        30.21S WCI   9
FORT WAYNE     CLEAR     20  11  68 S12       30.27F WCI   8

$$
INZ028>050-070200-
CENTRAL INDIANA

CITY           SKY/WX    TMP DP  RH WIND       PRES   REMARKS
LAFAYETTE      CLEAR     22  10  60 SW5       30.30R WCI  16
KOKOMO*          N/A    N/A N/A N/A MISG        N/A
MUNCIE*        CLEAR     24  11  57 S13G21    30.28S WCI  12
INDIANAPOLIS   CLEAR     25   8  48 S12       30.31R WCI  14

$$
MIZ043>046-050>051-056>058-064>065-071>073-077>080-070200-
SOUTHWEST LOWER MICHIGAN

CITY           SKY/WX    TMP DP  RH WIND       PRES   REMARKS
BATTLE CREEK   PTCLDY    21   8  57 SW13      30.19R WCI   9
BENTON HARBOR  PTCLDY    22  10  60 S10       30.20S WCI  11
COLDWATER*     CLEAR     21   8  59 S7        30.21R WCI  12
HILLSDALE*     CLEAR     20   9  63 S10       30.18F WCI   8
HOLLAND        CLOUDY    25  11  55 SW20G26   30.17S WCI  11
GRAND RAPIDS   MOCLDY    21   6  52 S16       30.15F WCI   7
KALAMAZOO      CLEAR     21   9  59 SW14      30.20R WCI   8
STURGIS*       CLEAR     19   9  63 S9        30.21R WCI   9
THREE RIVERS*  FAIR      21  10  64 SW10      30.22S WCI   9

$$
OHZ001>008-015>018-024>025-070200-
NORTHWEST OHIO

CITY           SKY/WX    TMP DP  RH WIND       PRES   REMARKS
DEFIANCE       CLEAR     21  10  62 S9        30.27S WCI  11
FINDLAY        CLEAR     21  10  62 S13       30.26F WCI   9
TOLEDO EXPRESS PTCLDY    20  10  65 SW10      30.27R WCI   9
TOLEDO METCALF MOCLDY    21  10  62 S12       30.27F WCI   9
LIMA           FAIR      23  10  57 S15       30.27F WCI  10

$$
AND FOR LAKE MICHIGAN COASTAL AND OPEN LAKE BUOY OBSERVATIONS

STATION/POSITION TEMP    WIND        PRES    VSBY  WAVE
                 AIR SEA DIR/SP/G                  HT/PER
                 (F)     (DEG/KT/KT) (MB)    (MI)  (FT/S)
CALUMET HARBOR    24     200/ 13/ 19 1021.4F
MICHIGAN CITY     24     180/ 14/ 19   N/A
SAINT JOSEPH      24     180/ 14/ 22 1023.0F

$$
&&


USA.gov is the U.S. government's official web portal to all federal, state and local government web resources and services.